太空蜂星座-144星 (SPACEBEE-144)

导读

SPACEBEE-144是美国于2022年5月2日发射的一颗低轨通信小卫星,属于Spacebee物联网卫星星座的组成部分,主要为全球提供机器对机器的物联网数据通信服务,支持偏远地区资产跟踪、环境监测等应用。该卫星体积小巧,采用近地轨道运行,融入美国商业航天低轨星座组网布局,服务全球物联网连接需求,是美国商业卫星物联网布局的一次具体实践,延续了美国商业航天蓬勃发展的态势。

基本信息
目录编号:
52410
目录名称:
SPACEBEE-144
国际标识:
2022-047S
轨道中心:
EARTH
卫星名称:
太空蜂星座-144星
卫星全名:
太空蜂星座-144星 (SPACEBEE-144)
卫星状态:
已陨落 最后检测时间 2024-05-02
发射日期:
2022-05-02 UTC
国别 :
美国 (US)
星等 :
--
轨道信息
数据来源 国际轨道数据
星历时间: 2024-05-02T23:42:08+0800
轨道信息已过期802天
半长轴: 6527.207km
偏心率: 0.0013267
轨道倾角: 97.364°
近地点辐角 278.079°
升交点赤经 218.551°
平近点角 81.901°
近地点: 140.412km
远地点: 157.732km
周期: 87.468分钟
每日圈数: 16.463104
详细信息
平衡模式:
三轴稳定
覆盖范围:
全球
运营商:
蜂群科技公司
运营商所在国:
美国
制造商(研发单位):
蜂群科技公司
制造商所在国:
美国
使用方式:
暂无
卫星简介
太空蜜蜂(SpaceBEE)皮卫星建立在0.25U立方体卫星平台上,是私营公司蜂群科技公司(Swarm Technologies)开发的卫星星座的一部分。该星座计划由大约150颗皮卫星组成,提供双向卫星通信和数据中继。该卫星已陨落。